Location: ????????
(55.0559°N, 39.1270°E)
Time: 01:45:54
(UTC+00:00)

Meteor 2-16 Rocket - Pass Details

Date: 15 November 2025
Orbit: 942 x 955 km, 82.6° (Epoch: 12 December)

Event Time Altitude Azimuth Distance (km) Brightness Sun altitude
Exits shadow 02:05:46 11° 199° (SSW) 2,568 6.5 -24.0°
Maximum altitude 02:11:36 74° 284° (WNW) 995 4.3 -23.1°
Drops below altitude 10° 02:17:46 10° 10° (N) 2,694 6.9 -22.2°
Sets 02:20:18 0° 12° (NNE) 3,645 7.6 -21.9°
